• In Netherlands
  • List of Countries
  • For 7 days
  • Water Temperature
  • Satellite Maps
  • Weather Map
  • Weather Widgets
  • user-avatar
    Login

    Hourly Weather Kalat

    Today, 24 May, Wednesday

    Time Temperature Precipitation Wind Pressure Humidity
    00:00 +3°C° 0 mm 2 mps 478 mmHg 78%
    01:00 +2°C° 0 mm 2 mps 478 mmHg 79%
    02:00 +2°C° 0 mm 2 mps 477 mmHg 79%
    03:00 +2°C° 0 mm 2 mps 477 mmHg 78%
    04:00 +2°C° 0 mm 2 mps 477 mmHg 77%
    05:00 -2°C° 0 mm 2 mps 475 mmHg 86%
    06:00 +1°C° 0 mm 2 mps 476 mmHg 81%
    07:00 +2°C° 0 mm 2 mps 478 mmHg 76%
    08:00 +4°C° 0 mm 2 mps 479 mmHg 71%
    09:00 +5°C° 0 mm 2 mps 480 mmHg 67%
    10:00 +6°C° 0 mm 2 mps 480 mmHg 63%
    11:00 +7°C° 0 mm 2 mps 481 mmHg 58%
    12:00 +8°C° 0 mm 2 mps 481 mmHg 52%
    13:00 +9°C° 0 mm 2 mps 482 mmHg 47%
    14:00 +10°C° 0 mm 2 mps 482 mmHg 41%
    15:00 +10°C° 0 mm 2 mps 482 mmHg 41%
    16:00 +10°C° 0 mm 2 mps 482 mmHg 41%
    17:00 +10°C° 0 mm 2 mps 482 mmHg 41%
    18:00 +8°C° 0 mm 2 mps 481 mmHg 47%
    19:00 +7°C° 0 mm 2 mps 480 mmHg 52%
    20:00 +6°C° 0 mm 2 mps 480 mmHg 57%
    21:00 +6°C° 0 mm 2 mps 479 mmHg 60%
    22:00 +5°C° 0 mm 2 mps 479 mmHg 62%
    23:00 +6°C° 0 mm 1 mps 479 mmHg 65%

    Tomorrow, 25 May, Thursday

    Time Temperature Precipitation Wind Pressure Humidity
    00:00 +5°C° 0 mm 1 mps 479 mmHg 64%
    01:00 +5°C° 0 mm 1 mps 478 mmHg 64%
    02:00 +5°C° 0 mm 1 mps 478 mmHg 63%
    03:00 +3°C° 0 mm 2 mps 477 mmHg 61%
    04:00 +3°C° 0 mm 2 mps 477 mmHg 58%
    05:00 +3°C° 0 mm 2 mps 477 mmHg 55%
    06:00 +4°C° 0 mm 2 mps 478 mmHg 47%
    07:00 +6°C° 0 mm 2 mps 479 mmHg 39%
    08:00 +7°C° 0 mm 2 mps 480 mmHg 30%
    09:00 +8°C° 0 mm 2 mps 481 mmHg 27%
    10:00 +9°C° 0 mm 2 mps 482 mmHg 24%
    11:00 +10°C° 0 mm 2 mps 482 mmHg 20%
    12:00 +11°C° 0 mm 3 mps 482 mmHg 21%
    13:00 +11°C° 0 mm 3 mps 482 mmHg 21%
    14:00 +12°C° 0 mm 3 mps 483 mmHg 22%
    15:00 +12°C° 0 mm 3 mps 482 mmHg 24%
    16:00 +11°C° 0 mm 3 mps 482 mmHg 26%
    17:00 +11°C° 0 mm 4 mps 482 mmHg 28%
    18:00 +10°C° 0 mm 3 mps 481 mmHg 34%
    19:00 +9°C° 0 mm 3 mps 481 mmHg 40%
    20:00 +7°C° 0 mm 2 mps 480 mmHg 45%
    21:00 +7°C° 0 mm 2 mps 480 mmHg 49%
    22:00 +6°C° 0 mm 2 mps 480 mmHg 52%
    23:00 +5°C° 0 mm 2 mps 480 mmHg 55%

    Day after tomorrow, 26 May, Friday

    Time Temperature Precipitation Wind Pressure Humidity
    00:00 +5°C° 0 mm 2 mps 479 mmHg 54%
    01:00 +5°C° 0 mm 2 mps 479 mmHg 54%
    02:00 +4°C° 0 mm 2 mps 479 mmHg 53%
    03:00 +4°C° 0 mm 2 mps 478 mmHg 51%
    04:00 +4°C° 0 mm 2 mps 478 mmHg 49%
    05:00 +3°C° 0 mm 2 mps 478 mmHg 47%
    06:00 +4°C° 0 mm 3 mps 479 mmHg 40%
    07:00 +5°C° 0 mm 3 mps 480 mmHg 34%
    08:00 +7°C° 0 mm 3 mps 481 mmHg 28%
    09:00 +8°C° 0 mm 3 mps 482 mmHg 26%
    10:00 +9°C° 0 mm 3 mps 482 mmHg 24%
    11:00 +10°C° 0 mm 3 mps 483 mmHg 22%
    12:00 +10°C° 0 mm 4 mps 483 mmHg 22%
    13:00 +11°C° 0 mm 4 mps 483 mmHg 21%
    14:00 +11°C° 0 mm 4 mps 483 mmHg 21%
    15:00 +11°C° 0 mm 4 mps 483 mmHg 21%
    16:00 +11°C° 0 mm 4 mps 483 mmHg 22%
    17:00 +11°C° 0 mm 4 mps 483 mmHg 22%
    18:00 +8°C° 0 mm 4 mps 482 mmHg 26%
    19:00 +8°C° 0 mm 3 mps 482 mmHg 30%
    20:00 +7°C° 0 mm 3 mps 481 mmHg 34%
    21:00 +5°C° 0 mm 3 mps 481 mmHg 36%
    22:00 +5°C° 0 mm 3 mps 481 mmHg 38%
    23:00 +5°C° 0 mm 2 mps 480 mmHg 40%

    27 May, Saturday

    Time Temperature Precipitation Wind Pressure Humidity
    00:00 +4°C° 0 mm 3 mps 480 mmHg 40%
    01:00 +3°C° 0 mm 3 mps 479 mmHg 40%
    02:00 +3°C° 0 mm 3 mps 479 mmHg 39%
    03:00 +3°C° 0 mm 3 mps 479 mmHg 39%
    04:00 +2°C° 0 mm 3 mps 478 mmHg 38%
    05:00 +2°C° 0 mm 3 mps 478 mmHg 37%
    06:00 +3°C° 0 mm 3 mps 479 mmHg 33%
    07:00 +5°C° 0 mm 3 mps 480 mmHg 28%
    08:00 +7°C° 0 mm 3 mps 481 mmHg 24%
    09:00 +8°C° 0 mm 3 mps 482 mmHg 23%
    10:00 +9°C° 0 mm 3 mps 482 mmHg 22%
    11:00 +10°C° 0 mm 4 mps 483 mmHg 21%
    12:00 +11°C° 0 mm 4 mps 483 mmHg 20%
    13:00 +11°C° 0 mm 4 mps 483 mmHg 20%
    14:00 +12°C° 0 mm 4 mps 483 mmHg 20%
    15:00 +12°C° 0 mm 4 mps 483 mmHg 21%
    16:00 +11°C° 0 mm 4 mps 482 mmHg 21%
    17:00 +11°C° 0 mm 4 mps 482 mmHg 22%
    18:00 +10°C° 0 mm 3 mps 482 mmHg 26%
    19:00 +9°C° 0 mm 3 mps 481 mmHg 30%
    20:00 +8°C° 0 mm 2 mps 481 mmHg 34%
    21:00 +7°C° 0 mm 2 mps 480 mmHg 36%
    22:00 +7°C° 0 mm 2 mps 480 mmHg 39%
    23:00 +6°C° 0 mm 2 mps 480 mmHg 42%

    28 May, Sunday

    Time Temperature Precipitation Wind Pressure Humidity
    00:00 +5°C° 0 mm 2 mps 479 mmHg 41%
    01:00 +5°C° 0 mm 2 mps 478 mmHg 41%
    02:00 +4°C° 0 mm 2 mps 478 mmHg 40%
    03:00 +4°C° 0 mm 2 mps 478 mmHg 39%
    04:00 +4°C° 0 mm 2 mps 477 mmHg 37%
    05:00 +3°C° 0 mm 2 mps 477 mmHg 36%
    06:00 +5°C° 0 mm 2 mps 478 mmHg 29%
    07:00 +7°C° 0 mm 2 mps 479 mmHg 23%
    08:00 +8°C° 0 mm 2 mps 481 mmHg 17%
    09:00 +9°C° 0 mm 2 mps 481 mmHg 15%
    10:00 +10°C° 0 mm 2 mps 482 mmHg 14%
    11:00 +12°C° 0 mm 2 mps 482 mmHg 12%
    12:00 +12°C° 0 mm 3 mps 482 mmHg 12%
    13:00 +13°C° 0 mm 3 mps 483 mmHg 12%
    14:00 +13°C° 0 mm 4 mps 483 mmHg 13%
    15:00 +13°C° 0 mm 4 mps 483 mmHg 14%
    16:00 +13°C° 0 mm 4 mps 482 mmHg 15%
    17:00 +12°C° 0 mm 4 mps 482 mmHg 16%
    18:00 +11°C° 0 mm 3 mps 482 mmHg 20%
    19:00 +10°C° 0 mm 3 mps 481 mmHg 24%
    20:00 +9°C° 0 mm 2 mps 480 mmHg 28%
    21:00 +8°C° 0 mm 2 mps 480 mmHg 31%
    22:00 +8°C° 0 mm 2 mps 480 mmHg 34%
    23:00 +7°C° 0 mm 2 mps 479 mmHg 37%

    29 May, Monday

    Time Temperature Precipitation Wind Pressure Humidity
    00:00 +6°C° 0 mm 2 mps 479 mmHg 36%
    01:00 +6°C° 0 mm 2 mps 478 mmHg 36%
    02:00 +5°C° 0 mm 2 mps 478 mmHg 35%
    03:00 +5°C° 0 mm 2 mps 478 mmHg 34%
    04:00 +4°C° 0 mm 2 mps 477 mmHg 33%
    05:00 +4°C° 0 mm 2 mps 477 mmHg 32%
    06:00 +4°C° 0 mm 3 mps 478 mmHg 28%
    07:00 +7°C° 0 mm 3 mps 479 mmHg 24%
    08:00 +8°C° 0 mm 3 mps 481 mmHg 20%
    09:00 +9°C° 0 mm 3 mps 481 mmHg 20%
    10:00 +10°C° 0 mm 4 mps 482 mmHg 20%
    11:00 +11°C° 0 mm 4 mps 482 mmHg 19%
    12:00 +11°C° 0 mm 4 mps 483 mmHg 19%
    13:00 +12°C° 0 mm 4 mps 483 mmHg 19%
    14:00 +12°C° 0 mm 4 mps 483 mmHg 19%
    15:00 +12°C° 0 mm 4 mps 483 mmHg 19%
    16:00 +12°C° 0 mm 4 mps 483 mmHg 19%
    17:00 +12°C° 0 mm 5 mps 482 mmHg 20%
    18:00 +11°C° 0 mm 4 mps 482 mmHg 23%
    19:00 +10°C° 0 mm 4 mps 482 mmHg 26%
    20:00 +9°C° 0 mm 3 mps 481 mmHg 30%
    21:00 +8°C° 0 mm 3 mps 481 mmHg 32%
    22:00 +7°C° 0 mm 3 mps 480 mmHg 35%
    23:00 +7°C° 0 mm 3 mps 480 mmHg 38%
    Show more